Daleville, AL

2:53 AM CST on February 21, 2017 (GMT -0600)
Cairns Army Air Field

Weather History for KOZR - January, 2014

Change the Weather History Date:

Thursday, January 2, 2014

  Actual Average Record
Temperature  
Mean Temperature 46 °F -  
Max Temperature 57 °F 59 °F 78 °F (2006)
Min Temperature 32 °F 38 °F 17 °F (2001)
Degree Days  
Heating Degree Days 20    
Moisture  
Dew Point 40 °F    
Average Humidity 66    
Maximum Humidity 76    
Minimum Humidity 51    
Precipitation  
Precipitation 0.17 in - - ()
Sea Level Pressure  
Sea Level Pressure 29.96 in    
Wind  
Wind Speed 6 mph (NNE)    
Max Wind Speed 18 mph    
Max Gust Speed 33 mph    
Visibility 6 miles    
Events Rain    
Averages and records for this station are not official NWS values.
T = Trace of Precipitation, MM = Missing Value Source: NWS Daily Summary

Daily Weather History Graph

Daily Weather History Graph

Search for Another Location

Airport or City:

Trip Planner

Search our weather history database for the weather conditions in past years. The results will help you decide how hot, cold, wet, or windy it might be!

Date:

Astronomy

Jan. 02, 2014 Rise Set
Actual Time 6:41 AM CST 4:52 PM CST
Civil Twilight 6:15 AM CST 5:18 PM CST
Nautical Twilight 5:45 AM CST 5:48 PM CST
Astronomical Twilight 5:15 AM CST 6:18 PM CST
Moon 7:29 AM CST (1/2) 6:39 PM CST (1/2)
Length of Visible Light 11h 03m
Length of Day
10h 10m
Waxing Crescent, 3% of the Moon is Illuminated
Jan 2
Waxing Crescent
Jan 7
First Quarter
Jan 15
Full
Jan 23
Last Quarter
Jan 30
New

Hourly Weather History & Observations

Time (CST) Temp. Windchill Dew Point Humidity Pressure Visibility Wind Dir Wind Speed Gust Speed Precip Events Conditions
12:13 AM 50.0 °F - 42.8 °F 76% 30.09 in 9.0 mi ENE 3.5 mph - N/A Rain Light Rain
12:33 AM 50.0 °F - 42.8 °F 76% 30.07 in 7.0 mi ENE 5.8 mph - N/A Rain Light Rain
12:35 AM 50.0 °F - 42.8 °F 76% 30.06 in 7.0 mi ENE 5.8 mph - N/A   Mostly Cloudy
12:46 AM 50.0 °F - 42.8 °F 76% 30.06 in 6.0 mi East 5.8 mph - N/A Rain Light Rain
12:54 AM 50.0 °F - 42.8 °F 76% 30.06 in 6.0 mi ENE 3.5 mph - N/A Rain Light Rain
12:58 AM 50.0 °F - 42.4 °F 75% 30.07 in 6.0 mi NE 4.6 mph - 0.01 in Rain Light Rain
1:58 AM 50.5 °F - 43.0 °F 75% 30.07 in 9.0 mi NNE 4.6 mph - 0.02 in Rain Light Rain
2:08 AM 50.0 °F - 42.8 °F 76% 30.05 in 9.0 mi ENE 4.6 mph - N/A Rain Light Rain
2:11 AM 50.0 °F - 42.8 °F 76% 30.05 in 10.0 mi ENE 4.6 mph - N/A   Overcast
2:46 AM 50.0 °F - 42.8 °F 76% 30.04 in 9.0 mi NNE 3.5 mph - N/A   Overcast
2:54 AM 50.0 °F - 42.8 °F 76% 30.03 in 9.0 mi NNE 4.6 mph - N/A   Light Drizzle
2:58 AM 50.5 °F - 43.3 °F 76% 30.04 in 8.0 mi NE 5.8 mph - 0.00 in   Light Drizzle
3:33 AM 50.0 °F - 42.8 °F 76% 30.01 in 7.0 mi NE 4.6 mph - N/A   Overcast
3:48 AM 50.0 °F - 42.8 °F 76% 30.00 in 6.0 mi East 5.8 mph - N/A   Haze
3:58 AM 50.4 °F - 43.2 °F 76% 30.01 in 6.0 mi ENE 5.8 mph - 0.00 in   Haze
4:02 AM 50.0 °F - 42.8 °F 76% 30.00 in 6.0 mi NE 4.6 mph - N/A   Haze
4:12 AM 50.0 °F - 42.8 °F 76% 29.99 in 6.0 mi ENE 4.6 mph - N/A   Haze
4:22 AM 50.0 °F - 41.0 °F 71% 29.98 in 6.0 mi ENE 4.6 mph - N/A   Haze
4:27 AM 50.0 °F - 39.2 °F 66% 29.97 in 6.0 mi ENE 5.8 mph - N/A   Haze
4:41 AM 50.0 °F - 39.2 °F 66% 29.99 in 6.0 mi NE 2.3 mph - N/A Rain Light Rain
4:46 AM 50.0 °F - 39.2 °F 66% 29.98 in 7.0 mi NE 3.5 mph - N/A   Light Drizzle
4:51 AM 50.0 °F - 39.2 °F 66% 29.98 in 7.0 mi ENE 4.6 mph - N/A   Overcast
4:58 AM 50.5 °F - 39.4 °F 66% 29.99 in 7.0 mi ENE 4.6 mph - 0.01 in   Overcast
5:03 AM 50.0 °F - 39.2 °F 66% 29.98 in 7.0 mi ENE 3.5 mph - N/A   Overcast
5:09 AM 50.0 °F - 39.2 °F 66% 29.97 in 7.0 mi NE 4.6 mph - N/A   Overcast
5:29 AM 50.0 °F - 39.2 °F 66% 29.98 in 6.0 mi East 3.5 mph - N/A   Haze
5:39 AM 50.0 °F - 39.2 °F 66% 29.97 in 4.0 mi East 4.6 mph - N/A   Haze
5:49 AM 50.0 °F - 39.2 °F 66% 29.97 in 2.5 mi East 4.6 mph - N/A   Haze
5:58 AM 50.7 °F - 39.6 °F 66% 29.97 in 2.0 mi ENE 3.5 mph - N/A   Haze
6:13 AM 50.0 °F - 39.2 °F 66% 29.96 in 1.8 mi East 3.5 mph - N/A   Haze
6:18 AM 50.0 °F - 39.2 °F 66% 29.96 in 2.0 mi ENE 4.6 mph - N/A   Haze
6:33 AM 51.8 °F - 39.2 °F 62% 29.95 in 1.8 mi East 4.6 mph - N/A   Haze
6:48 AM 51.8 °F - 39.2 °F 62% 29.95 in 1.0 mi East 4.6 mph - N/A   Haze
6:49 AM 51.8 °F - 39.2 °F 62% 29.95 in 1.0 mi East 5.8 mph - N/A   Haze
6:54 AM 51.8 °F - 39.2 °F 62% 29.95 in 0.8 mi East 4.6 mph - N/A   Haze
6:58 AM 50.9 °F - 39.4 °F 65% 29.95 in 0.8 mi East 4.6 mph - N/A   Haze
7:03 AM 51.8 °F - 39.2 °F 62% 29.94 in 0.8 mi East 3.5 mph - N/A   Haze
7:23 AM 51.8 °F - 39.2 °F 62% 29.93 in 1.0 mi NE 4.6 mph - N/A   Haze
7:33 AM 51.8 °F - 39.2 °F 62% 29.93 in 1.2 mi NE 3.5 mph - N/A   Haze
7:43 AM 51.8 °F - 39.2 °F 62% 29.93 in 1.5 mi NE 3.5 mph - N/A   Haze
7:46 AM 51.8 °F - 39.2 °F 62% 29.93 in 1.5 mi NE 3.5 mph - N/A   Haze
7:58 AM 51.4 °F - 39.7 °F 64% 29.93 in 1.5 mi East 3.5 mph - N/A   Haze
8:33 AM 51.8 °F - 41.0 °F 67% 29.93 in 2.0 mi SE 4.6 mph - N/A   Haze
8:38 AM 51.8 °F - 39.2 °F 62% 29.94 in 1.8 mi SE 3.5 mph - N/A   Haze
8:43 AM 51.8 °F - 41.0 °F 67% 29.94 in 1.2 mi SE 3.5 mph - N/A Rain Light Rain
8:53 AM 51.8 °F - 41.0 °F 67% 29.94 in 1.0 mi SSE 4.6 mph - N/A Rain Light Rain
8:58 AM 52.2 °F - 40.5 °F 64% 29.95 in 1.0 mi South 3.5 mph - 0.00 in Rain Light Rain
9:03 AM 51.8 °F - 41.0 °F 67% 29.94 in 1.2 mi SSE 3.5 mph - N/A Rain Light Rain
9:08 AM 51.8 °F - 41.0 °F 67% 29.94 in 1.5 mi SSE 4.6 mph - N/A Rain Light Rain
9:18 AM 51.8 °F - 41.0 °F 67% 29.94 in 2.0 mi South 3.5 mph - N/A Rain Light Rain
9:23 AM 51.8 °F - 41.0 °F 67% 29.94 in 1.8 mi South 4.6 mph - N/A Rain Light Rain
9:33 AM 51.8 °F - 41.0 °F 67% 29.94 in 1.0 mi SSE 3.5 mph - N/A Rain Light Rain
9:35 AM 51.8 °F - 41.0 °F 67% 29.94 in 1.0 mi SSE 4.6 mph - N/A   Haze
9:37 AM 53.6 °F - 41.0 °F 62% 29.94 in 0.8 mi SSE 5.8 mph - N/A Rain Light Rain
9:42 AM 53.6 °F - 41.0 °F 62% 29.94 in 0.8 mi SSE 4.6 mph - N/A Rain Light Rain
9:58 AM 53.1 °F - 40.8 °F 63% 29.94 in 0.8 mi South 4.6 mph - 0.03 in Rain Light Rain
10:07 AM 53.6 °F - 41.0 °F 62% 29.93 in 0.8 mi SSE 4.6 mph - N/A Rain Light Rain
10:12 AM 53.6 °F - 41.0 °F 62% 29.92 in 1.0 mi South 4.6 mph - N/A Rain Light Rain
10:22 AM 53.6 °F - 41.0 °F 62% 29.91 in 1.0 mi SSE 5.8 mph - N/A   Light Drizzle
10:25 AM 53.6 °F - 41.0 °F 62% 29.91 in 1.2 mi SSE 4.6 mph - N/A   Light Drizzle
10:30 AM 53.6 °F - 41.0 °F 62% 29.90 in 1.5 mi South 5.8 mph - N/A   Light Drizzle
10:40 AM 53.6 °F - 41.0 °F 62% 29.94 in 3.0 mi WNW 15.0 mph 24.2 mph N/A Rain Light Rain
10:45 AM 53.6 °F - 41.0 °F 62% 29.94 in 6.0 mi West 15.0 mph 24.2 mph N/A Rain Light Rain
10:50 AM 53.6 °F - 41.0 °F 62% 29.93 in 8.0 mi WNW 9.2 mph - N/A Rain Rain
10:58 AM 53.6 °F - 41.0 °F 62% 29.93 in 7.0 mi West 5.8 mph - 0.03 in Rain Light Rain
11:03 AM 53.6 °F - 41.0 °F 62% 29.91 in 5.0 mi West 4.6 mph - N/A Rain Light Rain
11:08 AM 53.6 °F - 41.0 °F 62% 29.92 in 2.5 mi West 4.6 mph - N/A Rain Rain
11:18 AM 53.6 °F - 42.8 °F 67% 29.91 in 3.0 mi West 4.6 mph - N/A Rain Light Rain
11:23 AM 53.6 °F - 42.8 °F 67% 29.91 in 5.0 mi WSW 3.5 mph - N/A Rain Light Rain
11:28 AM 53.6 °F - 42.8 °F 67% 29.91 in 4.0 mi West 5.8 mph - N/A Rain Rain
11:38 AM 55.4 °F - 42.8 °F 63% 29.90 in 8.0 mi WSW 8.1 mph - N/A Rain Light Rain
11:53 AM 55.4 °F - 42.8 °F 63% 29.89 in 10.0 mi West 4.6 mph - N/A   Light Drizzle
11:56 AM 55.4 °F - 44.6 °F 67% 29.89 in 10.0 mi West 5.8 mph - N/A   Light Drizzle
11:58 AM 55.4 °F - 44.6 °F 67% 29.90 in 10.0 mi West 5.8 mph - 0.07 in   Light Drizzle
11:59 AM 55.4 °F - 44.6 °F 67% 29.88 in 10.0 mi West 5.8 mph - N/A   Mostly Cloudy
12:02 PM 55.4 °F - 44.6 °F 67% 29.89 in 10.0 mi West 9.2 mph - N/A Rain Light Rain
12:07 PM 55.4 °F - 42.8 °F 63% 29.89 in 10.0 mi West 10.4 mph 18.4 mph N/A Rain Light Rain
12:18 PM 55.4 °F - 44.6 °F 67% 29.88 in 10.0 mi WNW 6.9 mph - N/A   Overcast
12:48 PM 55.4 °F - 44.6 °F 67% 29.88 in 10.0 mi West 9.2 mph - N/A   Overcast
12:56 PM 55.4 °F - 44.6 °F 67% 29.88 in 9.0 mi WNW 10.4 mph - N/A   Light Drizzle
12:58 PM 55.4 °F - 44.6 °F 67% 29.89 in 8.0 mi West 10.4 mph - 0.00 in   Light Drizzle
1:07 PM 55.4 °F - 44.6 °F 67% 29.88 in 9.0 mi West 9.2 mph - N/A   Overcast
1:22 PM 55.4 °F - 44.6 °F 67% 29.89 in 10.0 mi WNW 6.9 mph - N/A   Overcast
1:37 PM 55.4 °F - 46.4 °F 72% 29.89 in 10.0 mi WNW 10.4 mph - N/A   Overcast
1:52 PM 55.4 °F - 46.4 °F 72% 29.87 in 10.0 mi WNW 10.4 mph - N/A   Mostly Cloudy
1:58 PM 55.9 °F - 46.8 °F 71% 29.89 in 10.0 mi WNW 15.0 mph 19.6 mph 0.00 in   Scattered Clouds
2:58 PM 56.8 °F - 44.1 °F 62% 29.89 in 10.0 mi WNW 10.4 mph - N/A   Clear
3:13 PM 57.2 °F - 42.8 °F 59% 29.89 in 10.0 mi WNW 16.1 mph 24.2 mph N/A   Mostly Cloudy
3:28 PM 55.4 °F - 39.2 °F 54% 29.90 in 10.0 mi NW 18.4 mph 33.4 mph N/A   Overcast
3:58 PM 54.7 °F - 38.1 °F 54% 29.94 in 10.0 mi NW 17.3 mph 33.4 mph N/A   Partly Cloudy
4:18 PM 53.6 °F - 37.4 °F 54% 29.95 in 10.0 mi NW 12.7 mph 28.8 mph N/A   Mostly Cloudy
4:53 PM 51.8 °F - 35.6 °F 54% 29.98 in 10.0 mi NW 16.1 mph 25.3 mph N/A   Overcast
4:58 PM 51.1 °F - 35.8 °F 56% 29.99 in 10.0 mi WNW 13.8 mph 24.2 mph N/A   Overcast
5:58 PM 47.3 °F - 31.8 °F 55% 30.04 in 10.0 mi NNW 18.4 mph 25.3 mph N/A   Partly Cloudy
6:58 PM 43.9 °F 36.8 °F 29.3 °F 57% 30.09 in 10.0 mi NW 15.0 mph 23.0 mph N/A   Clear
7:58 PM 40.8 °F 33.3 °F 25.7 °F 55% 30.12 in 10.0 mi NW 13.8 mph 23.0 mph N/A   Clear
8:58 PM 38.1 °F 30.2 °F 21.7 °F 52% 30.15 in 10.0 mi NW 12.7 mph 19.6 mph N/A   Clear
9:58 PM 36.0 °F 28.0 °F 20.8 °F 54% 30.18 in 10.0 mi NW 11.5 mph 20.7 mph N/A   Clear
10:58 PM 34.0 °F 24.6 °F 17.4 °F 51% 30.21 in 10.0 mi NW 13.8 mph 24.2 mph N/A   Clear
11:58 PM 32.4 °F 23.0 °F 17.2 °F 54% 30.24 in 10.0 mi NW 12.7 mph - N/A   Clear